Ellsworth AFB, SD

8:13 AM MST on February 19, 2017 (GMT -0700)
Ellsworth Air Force Base

Weather History for KRCA - July, 2013

Change the Weather History Date:

Sunday, July 21, 2013

  Actual Average Record
Temperature  
Mean Temperature 77 °F -  
Max Temperature 91 °F 85 °F 104 °F (2007)
Min Temperature 63 °F 60 °F 55 °F (1997)
Cooling Degree Days 12    
Growing Degree Days 27 (Base 50)    
Moisture  
Dew Point 60 °F    
Average Humidity 65    
Maximum Humidity 96    
Minimum Humidity 30    
Precipitation  
Precipitation 0.04 in - - ()
Sea Level Pressure  
Sea Level Pressure 29.82 in    
Wind  
Wind Speed 9 mph (SSW)    
Max Wind Speed 22 mph    
Max Gust Speed 36 mph    
Visibility 10 miles    
Events Rain , Thunderstorm    
Averages and records for this station are not official NWS values.
T = Trace of Precipitation, MM = Missing Value Source: NWS Daily Summary

Daily Weather History Graph

Daily Weather History Graph

Search for Another Location

Airport or City:

Trip Planner

Search our weather history database for the weather conditions in past years. The results will help you decide how hot, cold, wet, or windy it might be!

Date:

Astronomy

Jul. 21, 2013 Rise Set
Actual Time 5:28 AM MDT 8:28 PM MDT
Civil Twilight 4:54 AM MDT 9:02 PM MDT
Nautical Twilight 4:10 AM MDT 9:46 PM MDT
Astronomical Twilight 3:18 AM MDT 10:37 PM MDT
Moon 7:26 PM MDT (7/21) 4:18 AM MDT (7/21)
Length of Visible Light 16h 07m
Length of Day
14h 59m
Waxing Gibbous, 98% of the Moon is Illuminated
Jul 21
Waxing Gibbous
Jul 22
Full
Jul 29
Last Quarter
Aug 6
New
Aug 14
First Quarter

Hourly Weather History & Observations

Time (MDT) Temp. Heat Index Dew Point Humidity Pressure Visibility Wind Dir Wind Speed Gust Speed Precip Events Conditions
12:00 AM 68.0 °F - 64.4 °F 88% 29.95 in 9.0 mi NE 8.1 mph - N/A Rain , Thunderstorm Light Thunderstorms and Rain
12:05 AM 66.2 °F - 64.4 °F 94% 29.96 in 10.0 mi NE 9.2 mph - N/A Rain Light Rain
12:27 AM 66.2 °F - 64.4 °F 94% 29.97 in 10.0 mi ENE 2.3 mph - N/A Rain , Thunderstorm Light Thunderstorms and Rain
12:42 AM 66.2 °F - 64.4 °F 94% 29.93 in 10.0 mi SW 8.1 mph - N/A Rain , Thunderstorm Light Rain
12:58 AM 66.2 °F - 64.9 °F 96% 29.88 in 10.0 mi Variable 2.3 mph - 0.03 in Thunderstorm Light Drizzle
12:59 AM 66.2 °F - 64.4 °F 94% 29.94 in 10.0 mi NNE 1.2 mph - N/A Thunderstorm Scattered Clouds
1:16 AM 66.2 °F - 64.4 °F 94% 29.93 in 10.0 mi WNW 6.9 mph - N/A Thunderstorm Light Drizzle
1:25 AM 66.2 °F - 64.4 °F 94% 29.90 in 10.0 mi East 2.3 mph - N/A Thunderstorm Mostly Cloudy
1:58 AM 65.8 °F - 62.8 °F 90% 29.85 in 10.0 mi South 1.2 mph - 0.00 in   Partly Cloudy
2:58 AM 63.5 °F - 62.1 °F 95% 29.84 in 10.0 mi NW 1.2 mph - N/A   Clear
3:58 AM 63.3 °F - 61.2 °F 93% 29.84 in 10.0 mi SSW 6.9 mph - N/A   Clear
4:58 AM 64.6 °F - 58.8 °F 82% 29.83 in 10.0 mi South 15.0 mph - N/A   Clear
5:58 AM 64.2 °F - 59.7 °F 85% 29.83 in 10.0 mi South 11.5 mph - N/A   Clear
6:58 AM 64.8 °F - 60.4 °F 86% 29.82 in 10.0 mi South 13.8 mph - N/A   Clear
7:58 AM 69.6 °F - 59.4 °F 70% 29.82 in 10.0 mi SSW 21.9 mph 35.7 mph 0.01 in   Clear
8:58 AM 74.5 °F - 59.4 °F 59% 29.83 in 10.0 mi SSW 20.7 mph 27.6 mph N/A   Clear
9:58 AM 79.3 °F - 59.9 °F 51% 29.81 in 10.0 mi SSW 20.7 mph 27.6 mph N/A   Clear
10:58 AM 82.8 °F 82.8 °F 59.5 °F 45% 29.79 in 10.0 mi South 18.4 mph 25.3 mph N/A   Clear
11:58 AM 84.6 °F 84.6 °F 60.3 °F 44% 29.78 in 10.0 mi South 15.0 mph - N/A   Clear
12:58 PM 86.2 °F 86.1 °F 60.6 °F 42% 29.75 in 10.0 mi South 18.4 mph - N/A   Clear
1:58 PM 88.7 °F 88.6 °F 60.8 °F 39% 29.73 in 10.0 mi South 15.0 mph 20.7 mph N/A   Clear
2:58 PM 86.0 °F 85.4 °F 59.0 °F 40% 29.73 in 10.0 mi South 12.7 mph - N/A   Partly Cloudy
3:58 PM 91.2 °F 90.2 °F 58.1 °F 33% 29.71 in 10.0 mi South 18.4 mph 23.0 mph N/A   Clear
4:58 PM 90.9 °F 89.7 °F 57.9 °F 33% 29.70 in 10.0 mi South 16.1 mph - N/A   Clear
5:58 PM 90.9 °F 88.9 °F 55.8 °F 30% 29.69 in 10.0 mi South 10.4 mph - N/A   Clear
6:58 PM 89.4 °F 87.7 °F 55.6 °F 32% 29.70 in 10.0 mi South 10.4 mph - N/A   Clear
7:58 PM 85.8 °F 85.4 °F 59.9 °F 41% 29.71 in 10.0 mi SSW 2.3 mph - N/A   Clear
8:58 PM 77.2 °F - 60.8 °F 57% 29.73 in 10.0 mi WNW 3.5 mph - N/A   Clear
9:58 PM 74.8 °F - 61.7 °F 64% 29.75 in 10.0 mi NW 4.6 mph - N/A   Scattered Clouds
10:14 PM 77.0 °F - 57.2 °F 50% 29.84 in 10.0 mi NNW 17.3 mph 25.3 mph N/A   Light Drizzle
10:26 PM 78.8 °F - 51.8 °F 39% 29.85 in 10.0 mi North 12.7 mph - N/A   Mostly Cloudy
10:58 PM 78.8 °F - 52.2 °F 39% 29.78 in 10.0 mi North 15.0 mph - 0.00 in   Clear
11:58 PM 75.6 °F - 55.9 °F 50% 29.80 in 10.0 mi North 15.0 mph - N/A   Clear